weather.gov     
National Weather Service

Weather Roundup
NWS Homepage
This page is being discontinued on March 12, 2014.
The same data is available at this site. Please update your bookmarks.
Thank you, and we apologize for the inconvenience.
Please send an email to SR-SRH.Webmaster@noaa.gov with any concerns.


Current Version
Previous Version:    01  02  03  04  05  06  07  08  09  10  11  12  13  14  15  16  17  18  19  20  21  22  23  24  25  26  27  28  29  30  
   31  32  33  34  35  36  37  38  39  40  41  42  43  44  45  46  47  48  49  50  51  52  53  54  55  56  57  58  59  60  
[Printable]
446
NZUS59 KLOT 311010
HRRLOT

CHICAGO AREA WEATHER ROUNDUP
NATIONAL WEATHER SERVICE CHICAGO/ROMEOVILLE IL
500 AM CDT SUN AUG 31 2014

NOTE: "FAIR" INDICATES FEW OR NO CLOUDS BELOW 12,000 FEET WITH NO
SIGNIFICANT WEATHER AND/OR OBSTRUCTIONS TO VISIBILITY.

* THESE STATIONS ARE NOT UNDER NWS QUALITY CONTROL. THEY ALSO MAY NOT
  REPORT WEATHER SUCH AS PRECIPITATION OR FOG.

ILZ005-006-012>014-019>023-311100-
NORTHEAST ILLINOIS

CITY           SKY/WX    TMP DP  RH WIND       PRES   REMARKS
OHARE          MOCLDY    71  66  84 SW5       29.93R
MIDWAY         MOCLDY    71  67  87 SW5       29.92S
AURORA         FOG       66  64  93 CALM      29.94R VSB 1/4
LANSING*         N/A    N/A N/A N/A MISG        N/A
JOLIET*        FOG       65  64  94 CALM      29.94S VSB 1/2
WAUKEGAN       CLEAR     67  64  90 VRB3      29.92R
DUPAGE AIRPORT CLOUDY    69  67  93 S3        29.93R FOG
WHEELING       CLOUDY    70  66  87 CALM      29.94R
KANKAKEE*      PTCLDY    68  67  98 S3        29.94S FOG
MORRIS*        PTCLDY    67  67 100 CALM      29.94R FOG
LEWIS AIRPORT* MOCLDY    66  66 100 S3        29.94R
NORTHERLY IS     N/A     71  66  84 SW5         N/A
$$

WIZ051-052-058>065-066-070>072-311100-
SOUTHEAST WISCONSIN

CITY           SKY/WX    TMP DP  RH WIND       PRES   REMARKS
MILWAUKEE      MOCLDY    64  63  96 CALM      29.92R
KENOSHA*       CLEAR     62  62 100 SW3       29.93S FOG
RACINE*        CLEAR     65  64  97 W3        29.94R
BURLINGTON     FOG       59  59 100 CALM      29.93R VSB 1/2
WAUKESHA       FOG       61  61 100 CALM      29.94S VSB 1/4
WEST BEND      CLOUDY    63  61  94 CALM      29.93R FOG
$$

INZ001>003-010>013-019-020-311100-
NORTHWEST INDIANA

CITY           SKY/WX    TMP DP  RH WIND       PRES   REMARKS
GARY*          MOCLDY    68  66  94 CALM      29.94R
MICHIGAN CITY* NOT AVBL
RENSSELAER*    NOT AVBL
VALPARAISO     CLOUDY    67  66  97 S3        29.96R
$$

LMZ740>746-311100-
SOUTHERN LAKE MICHIGAN

STATION/POSITION TIME  SKY/WX   TEMP WIND        PRES    VSBY
                                AIR  DIR/SP/G
                 (UTC)          (F)  (DEG/KT/KT) (MB)    (MI)
HARRISON CRIB    1000            71  210/ 13/ 14   N/A
BURNHAM HARBOR   1000            71  250/  5/  7   N/A
CALUMET HARBOR   1000            69  200/  6/  7 1012.4R
BURNS HARBOR     NOT AVBL
MICHIGAN CITY    1000            67  170/  5/  7   N/A
$$

ABBREVIATIONS USED IN REMARKS
   TC - TEMPERATURE IN CELSIUS
  WCI - WIND CHILL INDEX
   HX - HEAT INDEX
  VSB - VISIBILITY
$$




U.S. Dept. of Commerce
NOAA National Weather Service
1325 East West Highway
Silver Spring, MD 20910
E-mail: w-nws.webmaster@noaa.gov
Page last modified: May 16, 2007
NATIONAL WEATHER SERVICE: for Safety, for Work, for Fun - FOR LIFE